Location: WWIN Observatory
(34.8953°N, 91.9583°W)
Time: 10:52:42
(UTC-05:00)

N. Korean satellite - Pass Details

Date: 29 March 2019
Orbit: 457 x 508 km, 97.2° (Epoch: 22 April)

Event Time Altitude Azimuth Distance (km) Brightness Sun altitude
Rises 06:12:34 0° 36° (NE) 2,558 11.0 -10.3°
Reaches altitude 10° 06:15:42 10° 67° (ENE) 1,684 10.8 -9.7°
Maximum altitude 06:17:19 13° 93° (E) 1,534 10.5 -9.3°
Drops below altitude 10° 06:18:56 10° 120° (ESE) 1,690 10.1 -9.0°
Sets 06:22:04 0° 150° (SSE) 2,577 10.5 -8.4°
